Regional Weather Roundup
Issued by NWS Jackson, KY

Home | Current Version | Previous Version | Graphics & Text | Print | Product List | Glossary On
Versions: 1 2 3 4 5 6 7 8 9 10 11 12 13 14 15 16 17 18 19 20 21 22 23 24 25 26 27 28 29 30 31 32 33 34 35 36 37 38 39 40 41 42 43 44 45 46 47 48 49 50
000
ASUS43 KJKL 281410
RWRJKL

EAST KENTUCKY HOURLY WEATHER ROUNDUP
NATIONAL WEATHER SERVICE JACKSON KY
1000 AM EDT TUE JUL 28 2015

NOTE: "FAIR" INDICATES FEW OR NO CLOUDS BELOW 12,000 FEET WITH
NO SIGNIFICANT WEATHER AND/OR OBSTRUCTIONS TO VISIBILITY.

* THESE REPORTS ARE NOT UNDER NWS QUALITY CONTROL AND MAY NOT
  REPORT WEATHER SUCH AS PRECIPITATION AND FOG.

KYZ079-080-083-085-087-088-110-112-115-119-120-281500
...EASTERN KENTUCKY...

CITY           SKY/WX    TMP DP  RH WIND       PRES   REMARKS
JACKSON        SUNNY     79  73  82 CALM      30.05S
LONDON         SUNNY     80  70  71 W3        30.05R
SOMERSET*      MOSUNNY   79  73  83 CALM      30.04F
MONTICELLO*    MOSUNNY   82  75  79 CALM      30.06S
WILLIAMSBURG*  SUNNY     81  75  83 CALM      30.05S
MIDDLESBORO*   PTSUNNY   74  73  95 CALM      30.06F
HAZARD APT*    SUNNY     77  77 100 CALM      30.04F
BLACK MTN*       N/A     72  68  88 CALM        N/A
PIKEVILLE APT* CLOUDY    73  73 100 CALM      30.06S
BIG SANDY*     CLOUDY    74  74  99 CALM      30.04S
MOREHEAD APT*  SUNNY     79  73  83 CALM      30.04F
$$

KYZ035-036-041-042-044-050-067-078-099-281500
...CENTRAL KENTUCKY...

CITY           SKY/WX    TMP DP  RH WIND       PRES   REMARKS
MT STERLING*   MOSUNNY   79  73  83 CALM      30.04S
FLEMING/MASON* SUNNY     77  72  83 CALM      30.04S
DANVILLE*      CLOUDY    81  73  78 CALM      30.04S
RICHMOND*      MOSUNNY   81  73  78 S5        30.03S
LEXINGTON      SUNNY     82  75  79 S6        30.02S
FRANKFORT      MOSUNNY   80  74  81 SW6       30.00S
$$

KYZ091>093-OHZ055-061-077-WVZ005-015-034-035-042-281500
...SOUTHERN OHIO/WEST VIRGINIA...

CITY           SKY/WX    TMP DP  RH WIND       PRES   REMARKS
COVINGTON      MOSUNNY   82  74  76 E5        30.01S
COLUMBUS       MOSUNNY   81  68  64 NE3       30.01F
DAYTON         MOSUNNY   80  70  71 E3        30.04S
WILMINGTON     SUNNY     77  71  82 E5        30.03R
HUNTINGTON     MOSUNNY   76  72  87 E3        30.01F FOG
CHARLESTON     MOSUNNY   76  70  82 SW3       30.03S
PINEVILLE*     PTSUNNY   77  73  88 MISG      30.13S
BECKLEY        CLOUDY    75  69  81 CALM      30.12R
BLUEFIELD      PTSUNNY   78  69  73 W6        30.14S
$$

VAZ002-007-008-TNZ017-027-036-066-071-281500
...SOUTHWEST VIRGINIA/EAST TENNESSEE...

CITY           SKY/WX    TMP DP  RH WIND       PRES   REMARKS
WISE*          PTSUNNY   81  68  65 CALM      30.13S
ABINGDON*      PTSUNNY   80  71  74 W3        30.10S
BRISTOL        MOSUNNY   79  71  76 CALM      30.07S
KNOXVILLE      MOSUNNY   80  73  79 S3        30.04R HAZE
OAK RIDGE      SUNNY     81  73  76 CALM      30.05S
CROSSVILLE     SUNNY     82  72  71 W5        30.10R
NASHVILLE      MOSUNNY   86  77  74 VRB5      30.02R HX  97
$$

...KEY TO REMARKS...
VSB - VISIBILITY IN MILES
WCI - WIND CHILL INDEX
HX  - HEAT INDEX

$$



USA.gov is the U.S. government's official web portal to all federal, state and local government web resources and services.